GW2134 Weather Reports


time (UTC)temp
C
wind
direction
speed
KPH
gust
KPH
rain 1hr
cm
rain 24hr
cm
rain mn
cm
humidity
%
barometer
mb
20260902100105 27 190 6.4 14.5 0.00 0.00 0.00 53 1023.9
20260902094601 27 169 3.2 14.5 0.00 0.00 0.00 54 1024.0
20260902093105 27 170 4.8 11.3 0.00 0.00 0.00 54 1024.1
20260902091603 27 113 3.2 8.0 0.00 0.00 0.00 55 1024.2
20260902090100 27 121 3.2 11.3 0.00 0.00 0.00 56 1024.2
20260902084601 26 108 3.2 8.0 0.00 0.00 0.00 56 1024.2
20260902083058 26 0 0.0 9.7 0.00 0.00 0.00 57 1024.0
20260902081602 26 128 1.6 4.8 0.00 0.00 0.00 57 1023.8
20260902080056 25 113 1.6 4.8 0.00 0.00 0.00 58 1023.8
20260902074600 25 0 0.0 4.8 0.00 0.00 0.00 60 1023.6
20260902073102 24 0 1.6 4.8 0.00 0.00 0.00 62 1023.6
20260902071606 23 0 1.6 6.4 0.00 0.00 0.00 63 1023.3
20260902070058 22 0 0.0 3.2 0.00 0.00 0.00 66 1023.3
20260902064606 21 44 0.0 3.2 0.00 0.00 0.00 68 1023.3
20260902063100 21 0 0.0 1.6 0.00 0.00 0.00 70 1023.3
20260902060109 20 0 0.0 1.6 0.00 0.00 0.00 74 1023.2
20260902054600 19 0 0.0 0.0 0.00 0.00 0.00 75 1023.1
20260902053114 18 0 0.0 1.6 0.00 0.00 0.00 76 1023.0
20260902051600 18 43 0.0 3.2 0.00 0.00 0.00 77 1022.9
20260902050107 18 0 0.0 1.6 0.00 0.00 0.00 73 1022.9
20260902044606 18 0 0.0 1.6 0.00 0.00 0.00 75 1023.0
20260902043106 18 0 0.0 1.6 0.00 0.00 0.00 75 1022.9
20260902041604 18 0 0.0 1.6 0.00 0.00 0.00 75 1022.9
20260902040056 18 0 0.0 4.8 0.00 0.00 0.00 75 1022.8
20260902034557 18 0 0.0 3.2 0.00 0.00 0.00 73 1022.9
20260902033100 18 0 0.0 3.2 0.00 0.00 0.00 72 1022.8
20260902031602 18 0 0.0 1.6 0.00 0.00 0.00 72 1023.0
20260902030055 18 0 0.0 0.0 0.00 0.00 0.00 71 1023.0
20260902024553 18 0 0.0 0.0 0.00 0.00 0.00 72 1023.0
20260902023100 18 0 0.0 0.0 0.00 0.00 0.00 72 1023.1
20260902021601 18 0 0.0 3.2 0.00 0.00 0.00 72 1023.0
20260902020106 18 0 0.0 0.0 0.00 0.00 0.00 73 1023.1
20260902014555 18 0 0.0 0.0 0.00 0.00 0.00 74 1023.1
20260902013059 18 0 0.0 0.0 0.00 0.00 0.00 73 1023.2
20260902011601 19 360 0.0 1.6 0.00 0.00 0.00 73 1023.2
20260902010106 19 360 0.0 1.6 0.00 0.00 0.00 71 1023.3
20260902004602 19 0 0.0 1.6 0.00 0.00 0.00 71 1023.2
20260902003054 19 0 0.0 0.0 0.00 0.00 0.00 71 1023.1
20260902001625 19 0 0.0 3.2 0.00 0.00 0.00 71 1023.1
20260902000103 19 0 0.0 0.0 0.00 0.00 0.00 70 1023.1
20260901234555 19 360 0.0 3.2 0.00 0.00 0.00 70 1023.1
20260901233102 19 0 0.0 1.6 0.00 0.00 0.00 72 1023.1
20260901231602 20 0 0.0 1.6 0.00 0.00 0.00 72 1023.1
20260901230101 20 0 0.0 1.6 0.00 0.00 0.00 73 1023.1
20260901224606 20 360 0.0 1.6 0.00 0.00 0.00 71 1023.1
20260901223103 20 0 0.0 1.6 0.00 0.00 0.00 73 1023.1
20260901221600 20 0 0.0 1.6 0.00 0.00 0.00 73 1023.2
20260901220134 20 360 1.6 4.8 0.00 0.00 0.00 73 1023.1
20260901214604 20 360 3.2 4.8 0.00 0.00 0.00 73 1023.1
20260901213122 20 0 0.0 3.2 0.00 0.00 0.00 73 1022.9
20260901211554 20 0 0.0 4.8 0.00 0.00 0.00 73 1022.9
20260901210117 21 360 3.2 4.8 0.00 0.00 0.00 72 1022.8
20260901204558 21 0 3.2 4.8 0.00 0.00 0.00 72 1022.7
20260901203058 21 0 0.0 4.8 0.00 0.00 0.00 72 1022.8
20260901201554 21 360 4.8 6.4 0.00 0.00 0.00 71 1022.7
20260901200058 21 0 1.6 6.4 0.00 0.00 0.00 70 1022.8
20260901194559 22 360 0.0 3.2 0.00 0.00 0.00 68 1022.9
20260901193106 22 0 0.0 4.8 0.00 0.00 0.00 68 1022.9
20260901191558 22 360 1.6 4.8 0.00 0.00 0.00 68 1023.1
20260901190055 22 0 0.0 3.2 0.00 0.00 0.00 67 1022.6
20260901184609 22 360 3.2 8.0 0.00 0.00 0.00 68 1022.3
20260901183108 23 360 4.8 8.0 0.00 0.00 0.00 67 1022.1
20260901181604 23 355 3.2 9.7 0.00 0.00 0.00 67 1021.9
20260901180100 23 15 1.6 8.0 0.00 0.00 0.00 66 1021.7
20260901174600 23 0 0.0 6.4 0.00 0.00 0.00 65 1021.8
20260901173056 24 360 3.2 6.4 0.00 0.00 0.00 63 1021.7
20260901171558 25 0 0.0 4.8 0.00 0.00 0.00 62 1021.6
20260901170108 25 0 3.2 6.4 0.00 0.00 0.00 60 1021.6
20260901164558 26 0 0.0 11.3 0.00 0.00 0.00 59 1021.6
20260901163059 26 0 1.6 8.0 0.00 0.00 0.00 58 1021.5
20260901161558 26 171 3.2 12.9 0.00 0.00 0.00 57 1021.8
20260901160051 27 185 1.6 8.0 0.00 0.00 0.00 56 1021.9
20260901154617 27 192 4.8 12.9 0.00 0.00 0.00 54 1022.0
20260901153105 28 177 3.2 12.9 0.00 0.00 0.00 54 1021.9
20260901151552 28 189 1.6 16.1 0.00 0.00 0.00 53 1022.0
20260901150117 27 144 4.8 16.1 0.00 0.00 0.00 55 1022.1
20260901144603 27 195 8.0 22.5 0.00 0.00 0.00 55 1022.0
20260901143102 28 188 9.7 24.1 0.00 0.00 0.00 53 1022.1
20260901141602 28 198 6.4 19.3 0.00 0.00 0.00 52 1022.1
20260901140059 30 185 4.8 17.7 0.00 0.00 0.00 46 1022.0
20260901134601 30 96 4.8 14.5 0.00 0.00 0.00 43 1022.2
20260901133058 30 141 1.6 12.9 0.00 0.00 0.00 41 1022.1
20260901131606 30 155 4.8 12.9 0.00 0.00 0.00 41 1022.1
20260901124606 30 130 6.4 14.5 0.00 0.00 0.00 42 1022.2
20260901123102 29 144 6.4 20.9 0.00 0.00 0.00 43 1022.3
20260901121610 29 109 6.4 16.1 0.00 0.00 0.00 42 1022.3
20260901120115 29 119 4.8 19.3 0.00 0.00 0.00 44 1022.4
20260901114609 29 174 6.4 24.1 0.00 0.00 0.00 45 1022.5
20260901113103 30 90 1.6 12.9 0.00 0.00 0.00 43 1022.4
20260901111604 29 109 3.2 12.9 0.00 0.00 0.00 45 1022.4
20260901110056 29 113 4.8 16.1 0.00 0.00 0.00 47 1022.4
20260901104555 29 83 0.0 14.5 0.00 0.00 0.00 47 1022.3
20260901103107 28 132 6.4 17.7 0.00 0.00 0.00 48 1022.3
20260901101601 28 0 1.6 12.9 0.00 0.00 0.00 47 1022.3